Change the Weather History Date:

Tuesday, May 7, 2013

  Actual Average Record
Temperature  
Mean Temperature 56 °F -  
Max Temperature 71 °F 63 °F 87 °F (2000)
Min Temperature 42 °F 43 °F 26 °F (2001)
Degree Days  
Heating Degree Days 8    
Growing Degree Days 6 (Base 50)    
Moisture  
Dew Point 47 °F    
Average Humidity 74    
Maximum Humidity 87    
Minimum Humidity 50    
Precipitation  
Precipitation 0.00 in - - ()
Sea Level Pressure  
Sea Level Pressure 30.17 in    
Wind  
Wind Speed 3 mph (SE)    
Max Wind Speed 15 mph    
Max Gust Speed 21 mph    
Visibility 10 miles    
Events      
Averages and records for this station are not official NWS values.
T = Trace of Precipitation, MM = Missing Value Source: NWS Daily Summary

Daily Weather History Graph

Daily Weather History Graph

Search for Another Location

Airport or City:

Trip Planner

Search our weather history database for the weather conditions in past years. The results will help you decide how hot, cold, wet, or windy it might be!

Date:

Astronomy

May. 07, 2013 Rise Set
Actual Time 5:41 AM EDT 7:56 PM EDT
Civil Twilight 5:11 AM EDT 8:27 PM EDT
Nautical Twilight 4:33 AM EDT 9:05 PM EDT
Astronomical Twilight 3:51 AM EDT 9:47 PM EDT
Moon 4:16 AM EDT (5/7) 5:52 PM EDT (5/7)
Length of Visible Light 15h 16m
Length of Day
14h 15m
Waning Crescent, 5% of the Moon is Illuminated
May 7
Waning Crescent
May 9
New
May 18
First Quarter
May 25
Full
May 31
Last Quarter

Hourly Weather History & Observations

Time (EDT) Temp. Windchill Dew Point Humidity Pressure Visibility Wind Dir Wind Speed Gust Speed Precip Events Conditions
12:15 AM 50.0 °F - 42.8 °F 76% 30.20 in 10.0 mi Calm Calm - N/A   Clear
12:35 AM 50.0 °F - 42.8 °F 76% 30.20 in 10.0 mi Calm Calm - N/A   Clear
12:55 AM 48.2 °F - 42.8 °F 82% 30.19 in 10.0 mi Calm Calm - N/A   Clear
1:15 AM 48.2 °F - 42.8 °F 82% 30.19 in 10.0 mi Calm Calm - N/A   Clear
1:35 AM 46.4 °F - 41.0 °F 81% 30.18 in 10.0 mi Calm Calm - N/A   Clear
1:55 AM 44.6 °F 43.1 °F 39.2 °F 81% 30.18 in 10.0 mi North 3.5 mph - N/A   Clear
2:15 AM 46.4 °F - 41.0 °F 81% 30.18 in 10.0 mi Calm Calm - N/A   Clear
2:35 AM 44.6 °F 43.1 °F 39.2 °F 81% 30.17 in 10.0 mi North 3.5 mph - N/A   Clear
2:55 AM 44.6 °F - 39.2 °F 81% 30.17 in 10.0 mi Calm Calm - N/A   Clear
3:15 AM 44.6 °F - 39.2 °F 81% 30.17 in 10.0 mi Calm Calm - N/A   Clear
3:35 AM 44.6 °F - 39.2 °F 81% 30.17 in 10.0 mi Calm Calm - N/A   Clear
3:55 AM 44.6 °F - 39.2 °F 81% 30.17 in 10.0 mi Calm Calm - N/A   Clear
4:15 AM 44.6 °F - 39.2 °F 81% 30.17 in 10.0 mi Calm Calm - N/A   Clear
4:35 AM 44.6 °F - 41.0 °F 87% 30.17 in 10.0 mi Calm Calm - N/A   Clear
4:55 AM 42.8 °F 41.1 °F 39.2 °F 87% 30.16 in 10.0 mi NE 3.5 mph - N/A   Clear
5:15 AM 44.6 °F 43.1 °F 39.2 °F 81% 30.16 in 10.0 mi ENE 3.5 mph - N/A   Clear
5:35 AM 44.6 °F 43.1 °F 41.0 °F 87% 30.16 in 10.0 mi ENE 3.5 mph - N/A   Clear
5:45 AM 44.6 °F - 39.2 °F 81% 30.16 in 10.0 mi Calm Calm - N/A   Partly Cloudy
5:55 AM 44.6 °F - 39.2 °F 81% 30.16 in 10.0 mi Calm Calm - N/A   Clear
6:55 AM 50.0 °F - 44.6 °F 82% 30.18 in 10.0 mi Calm Calm - N/A   Clear
7:45 AM 55.4 °F - 46.4 °F 72% 30.18 in 10.0 mi Calm Calm - N/A   Clear
8:45 AM 59.0 °F - 46.4 °F 63% 30.19 in 10.0 mi East 6.9 mph - N/A   Clear
9:45 AM 64.4 °F - 48.2 °F 56% 30.20 in 10.0 mi Variable 5.8 mph - N/A   Clear
10:45 AM 68.0 °F - 51.8 °F 56% 30.20 in 10.0 mi SSE 6.9 mph - N/A   Clear
11:45 AM 69.8 °F - 51.8 °F 53% 30.19 in 10.0 mi South 5.8 mph - N/A   Clear
12:45 PM 71.6 °F - 51.8 °F 50% 30.18 in 10.0 mi South 15.0 mph 20.7 mph N/A   Partly Cloudy
1:45 PM 71.6 °F - 53.6 °F 53% 30.16 in 10.0 mi South 10.4 mph 16.1 mph N/A   Scattered Clouds
2:45 PM 69.8 °F - 55.4 °F 60% 30.16 in 10.0 mi South 11.5 mph 17.3 mph N/A   Scattered Clouds
3:45 PM 71.6 °F - 57.2 °F 60% 30.15 in 10.0 mi South 11.5 mph - N/A   Scattered Clouds
4:45 PM 69.8 °F - 55.4 °F 60% 30.14 in 10.0 mi South 11.5 mph 18.4 mph N/A   Scattered Clouds
5:45 PM 69.8 °F - 55.4 °F 60% 30.13 in 10.0 mi SSE 11.5 mph 18.4 mph N/A   Partly Cloudy
6:45 PM 66.2 °F - 55.4 °F 68% 30.14 in 10.0 mi South 11.5 mph - N/A   Partly Cloudy
7:45 PM 64.4 °F - 55.4 °F 73% 30.15 in 10.0 mi South 8.1 mph - N/A   Clear
9:35 PM 60.8 °F - 53.6 °F 77% 30.18 in 10.0 mi SE 4.6 mph - N/A   Clear
9:55 PM 60.8 °F - 53.6 °F 77% 30.18 in 10.0 mi SE 5.8 mph - N/A   Clear
10:15 PM 60.8 °F - 53.6 °F 77% 30.18 in 10.0 mi SE 4.6 mph - N/A   Clear
10:35 PM 60.8 °F - 53.6 °F 77% 30.18 in 10.0 mi SE 4.6 mph - N/A   Clear
10:55 PM 59.0 °F - 53.6 °F 82% 30.18 in 10.0 mi SE 4.6 mph - N/A   Clear
11:15 PM 59.0 °F - 53.6 °F 82% 30.18 in 10.0 mi ESE 4.6 mph - N/A   Mostly Cloudy
11:55 PM 59.0 °F - 53.6 °F 82% 30.17 in 10.0 mi ESE 3.5 mph - N/A   Partly Cloudy